CZ-6A DEB, 56607

Orbit data source: Space-Track

CZ-6A DEB, 56607 is space debris in SSO originally from a launch on Fri, 11 Nov 2022 UTC launched from the Taiyaun Space Center, China (TSC). Debris objects in space refer to the collection of defunct objects orbiting the Earth. Examples of debris include non-operational satellites, rocket bodies, and fragments generated from explosions, collisions, or faulty payload assembly.

Loading next visibility...
Identifier
56607, 2022-151AEF
Orbit
SSO
Country
Flag of CNCN / PRC
Related business
Manufacturer
SAST
Mission
Spacecraft
Bus & Motor
Unknown
Mass
Unknown
Launch date (UTC)
2022-11-11 (4 years ago)
Launch vehicle
Unknown
Launch site
Taiyaun Space Center, China (TSC)
Object type
Payload
Rocket body
Debris
Shape & HBR
Unknown shape, 0.1 m
Radar Cross Section
Medium (>0.1 m² and <1 m²)

Expand to show TLE details & history
Last TLE update: 3 days ago

TLE from 3 days ago
0 CZ-6A DEB
1 56607U 22151AEF 26219.28966809  .00000239  00000-0  10238-3 0  9994
2 56607  98.6879 245.2106 0113985 305.6912  53.3703 14.30354697171413
Epoch: 2026-08-07T06:57Z
TLE epoch observation values (Epoch: 2026-08-07T06:57:07.322Z)
Latitude
-0.00013°
Longitude
-174.88738°
Altitude
745.319 km
Speed
7.507 km/s
True Right ascension
16h 20m 50s
True Declination
0° 00' 00"
Sunlit
Object was in daylight at epoch
Visualization orbit readout
Latitude
Unknown
Longitude
Unknown
Altitude
Unknown
Speed
Unknown
Apparent Right ascension
Unknown
Apparent Declination
Unknown
Sunlit
N/A
Visualization observer readout
Local Sidereal Time
16:47:57
Azimuth
Unknown
Elevation
Unknown
Doppler factor
Unknown
Orbital elements
Apogee altitude
869.368 km
Perigee altitude
706.009 km
Semi-major axis
7,165.826 km
Eccentricity
0.0114
Inclination
98.6879°
RAAN
245.2106°
Arg. of periapsis
305.6912°
True anomaly
54.42744°
Mean anomaly
53.3703°
Eccentric anomaly
53.89797°
Mean motion
3.57803 °/min
Orbital period
100.61 mins
BSTAR
0.00010238
Loading maneuver chart data...
Computing Atmospheric mass density...
Loading historical data...
Loading historical data...
Loading historical data...
Loading historical data...
Loading historical data...
Loading historical data...
Loading historical data...

Documentation

Showing up to 5 results
|